Home > Weather > Gangneung > Past weeks

Flag for South Korea Weather for the Past 2 Weeks in Gangneung, South Korea

Now
32 °F

Sunny.


Feels Like: 26 °F
Forecast: 30 / 39 °F
Wind: 6 mph from Northwest

Location: Seoul E Ab

Current Time: Feb 9, 2016 at 8:54:23 AM

Latest Report: Feb 9, 2016 at 8:00 AM


Visibility: N/A

Pressure: 30.15 "Hg

Humidity: 51%

Dew point: 16 °F

Location of GangneungLocation

Historic Weather in Gangneung — Graph

°F

Gangneung Temperature Yesterday

Maximum temperature yesterday: 45 °F (at 3:00 PM)
Minimum temperature yesterday: 23 °F (at 7:00 AM)
Average temperature yesterday: 35 °F

High & Low Weather Summary for the Past Weeks

 TemperatureHumidityPressure
High45 °F (Feb 8, 3:00 PM)93% (Jan 28, 7:00 AM)30.45 "Hg (Jan 28, 7:00 AM)
Low5 °F (Jan 25, 7:00 AM)22% (Feb 5, 4:00 PM)29.88 "Hg (Feb 8, 7:00 PM)
Average30 °F53%30.30 "Hg
* Reported Jan 25 7:00 AM — Feb 9 7:00 AM, Gangneung, Weather by CustomWeather, © 2016

Note: Actual official high and low records may vary slightly from our data, if they occured in-between our weather recording intervals... More about our weather records

Advertising

Gangneung Weather History for the Previous 24 Hours

 ConditionsComfort  
Time TempWeatherWind HumidityBarometerVisibility
7:00 AM
Tue, Feb 9
32 °FClear.6 mph51%30.12 "HgN/A
6:00 AM32 °FClear.3 mph55%30.10 "HgN/A
4:00 AM32 °FClear.6 mph64%30.06 "HgN/A
3:00 AM34 °FPassing clouds.7 mph65%30.05 "HgN/A
12:00 AM39 °FPassing clouds.12 mph61%29.95 "Hg4 mi
11:00 PM
Mon, Feb 8
41 °FPassing clouds.7 mph61%29.91 "Hg4 mi
10:00 PM43 °FPassing clouds.13 mph61%29.90 "HgN/A
9:00 PM43 °FPassing clouds.9 mph57%29.88 "Hg5 mi
8:00 PM43 °FPassing clouds.12 mph57%29.88 "Hg5 mi
7:00 PM43 °FPassing clouds.9 mph57%29.88 "HgN/A
6:00 PM45 °FPartly sunny.9 mph53%29.90 "Hg5 mi
5:00 PM43 °FLight rain. Broken clouds.10 mph53%29.92 "Hg5 mi
4:00 PM45 °FBroken clouds.10 mph57%29.92 "Hg5 mi
3:00 PM45 °FPartly sunny.12 mph53%29.93 "Hg6 mi
1:00 PM43 °FBroken clouds.13 mph53%29.98 "HgN/A
12:00 PM41 °FBroken clouds.15 mph53%30.01 "HgN/A
11:00 AM37 °FPartly sunny.13 mph56%30.04 "HgN/A
10:00 AM36 °FPartly sunny.10 mph60%30.06 "HgN/A
9:00 AM30 °FPartly sunny.6 mph69%30.07 "HgN/A
8:00 AM25 °FPassing clouds.6 mph74%30.08 "HgN/A
Weather by CustomWeather, © 2016

See weather overviewHow to use our weather pages